Location: Banios
(43.0451°N, 0.2335°E)
Time: 10:59:27
(UTC+00:00)

Envisat - Pass Details

Date: 09 December 2021
Orbit: 764 x 766 km, 98.2° (Epoch: 20 January)

Event Time Altitude Azimuth Distance (km) Brightness Sun altitude
Rises 05:45:43 0° 5° (N) 3,243 6.1 -16.4°
Reaches altitude 10° 05:48:10 10° 357° (N) 2,312 5.3 -15.9°
Maximum altitude 05:52:49 38° 291° (WNW) 1,166 3.4 -15.1°
Drops below altitude 10° 05:57:27 10° 225° (SW) 2,296 5.2 -14.3°
Sets 05:59:53 0° 217° (SW) 3,218 6.0 -13.9°
